Phuket, Thailand

3:26 PM +07 on May 28, 2017 (GMT +0700)
Phuket International

Weather History for VTSP - July, 2012

Change the Weather History Date:

Tuesday, July 31, 2012

  Actual Average Record
Temperature  
Mean Temperature 86 °F -  
Max Temperature 90 °F 87 °F 93 °F (1996)
Min Temperature 83 °F 78 °F 71 °F (2007)
Cooling Degree Days 22    
Growing Degree Days 36 (Base 50)    
Moisture  
Dew Point 74 °F    
Average Humidity 68    
Maximum Humidity 79    
Minimum Humidity 59    
Precipitation  
Precipitation 0.00 in 0.36 in - ()
Sea Level Pressure  
Sea Level Pressure 29.84 in    
Wind  
Wind Speed 13 mph ()    
Max Wind Speed 23 mph    
Max Gust Speed 20 mph    
Visibility 5.7 miles    
Events      
Averages and records for this station are not official NWS values.
T = Trace of Precipitation, MM = Missing Value Source: Averaged Metar Reports

Daily Weather History Graph

Daily Weather History Graph

Search for Another Location

Airport or City:

Trip Planner

Search our weather history database for the weather conditions in past years. The results will help you decide how hot, cold, wet, or windy it might be!

Date:

Astronomy

Jul. 31, 2012 Rise Set
Actual Time 6:18 AM +07 6:47 PM +07
Civil Twilight 5:56 AM +07 7:09 PM +07
Nautical Twilight 5:30 AM +07 7:35 PM +07
Astronomical Twilight 5:04 AM +07 8:01 PM +07
Moon 5:08 PM +07 (7/31) 4:13 AM +07 (7/31)
Length of Visible Light 13h 12m
Length of Day
12h 28m
Waxing Gibbous, 95% of the Moon is Illuminated
Jul 31
Waxing Gibbous
Aug 2
Full
Aug 10
Last Quarter
Aug 17
New
Aug 24
First Quarter

Hourly Weather History & Observations

Time (+07) Temp. Heat Index Dew Point Humidity Pressure Visibility Wind Dir Wind Speed Gust Speed Precip Events Conditions
12:30 AM 84.2 °F 92.3 °F 75.2 °F 74% 29.89 in 5.6 mi West 13.8 mph - N/A   Mostly Cloudy
1:00 AM 84 °F - 77 °F 74% 29.86 in 6 mi West 5.8 mph - -   Mist
1:00 AM 84.2 °F 90.9 °F 73.4 °F 70% 29.89 in 5.6 mi West 12.7 mph - N/A   Mostly Cloudy
1:30 AM 84.2 °F 90.9 °F 73.4 °F 70% 29.86 in 5.6 mi West 13.8 mph - N/A   Mostly Cloudy
2:00 AM 84.2 °F 90.9 °F 73.4 °F 70% 29.86 in 5.6 mi WSW 13.8 mph - N/A   Mostly Cloudy
3:00 AM 84.2 °F 90.9 °F 73.4 °F 70% 29.83 in 5.6 mi West 16.1 mph - N/A   Mostly Cloudy
4:00 AM 82.4 °F 88.2 °F 73.4 °F 74% 29.83 in 5.6 mi WSW 8.1 mph - N/A   Mostly Cloudy
5:30 AM 82.4 °F 88.2 °F 73.4 °F 74% 29.83 in 5.6 mi WSW 10.4 mph - N/A   Mostly Cloudy
6:00 AM 82.4 °F 89.5 °F 75.2 °F 79% 29.83 in 5.6 mi West 6.9 mph - N/A   Mostly Cloudy
6:30 AM 82.4 °F 88.2 °F 73.4 °F 74% 29.83 in 5.6 mi WSW 10.4 mph - N/A   Mostly Cloudy
7:00 AM 84 °F - 75 °F 68% 29.80 in 6 mi West 9.2 mph - -   Mist
7:00 AM 84.2 °F 90.9 °F 73.4 °F 70% 29.83 in 5.6 mi West 15.0 mph - N/A   Mostly Cloudy
7:30 AM 84.2 °F 90.9 °F 73.4 °F 70% 29.86 in 5.6 mi West 17.3 mph - N/A   Mostly Cloudy
8:00 AM 86.0 °F 93.4 °F 73.4 °F 66% 29.86 in 5.6 mi West 15.0 mph - N/A   Mostly Cloudy
8:30 AM 86.0 °F 95.1 °F 75.2 °F 70% 29.86 in 5.6 mi West 16.1 mph - N/A   Mostly Cloudy
9:00 AM 86.0 °F 93.4 °F 73.4 °F 66% 29.86 in 5.6 mi West 18.4 mph - N/A   Mostly Cloudy
9:30 AM 87.8 °F 95.6 °F 73.4 °F 62% 29.86 in 5.6 mi West 18.4 mph - N/A   Mostly Cloudy
10:00 AM 87.8 °F 95.6 °F 73.4 °F 62% 29.89 in 5.6 mi West 19.6 mph - N/A   Mostly Cloudy
10:30 AM 87.8 °F 97.6 °F 75.2 °F 66% 29.89 in 5.6 mi West 20.7 mph - N/A   Mostly Cloudy
11:00 AM 87.8 °F 95.6 °F 73.4 °F 62% 29.89 in 5.6 mi West 20.7 mph - N/A   Mostly Cloudy
11:30 AM 87.8 °F 97.6 °F 75.2 °F 66% 29.86 in 5.6 mi West 23.0 mph - N/A   Mostly Cloudy
12:00 PM 87.8 °F 95.6 °F 73.4 °F 62% 29.86 in 5.6 mi West 21.9 mph - N/A   Mostly Cloudy
12:30 PM 89.6 °F 98.2 °F 73.4 °F 59% 29.86 in 6.2 mi West 19.6 mph - N/A   Scattered Clouds
1:00 PM 89 °F - 77 °F 60% 29.81 in 6 mi West 13.8 mph - -   Scattered Clouds
1:00 PM 89.6 °F 98.2 °F 73.4 °F 59% 29.86 in 6.2 mi West 19.6 mph - N/A   Scattered Clouds
1:30 PM 87.8 °F 97.6 °F 75.2 °F 66% 29.83 in 6.2 mi West 20.7 mph - N/A   Scattered Clouds
2:00 PM 89.6 °F 99.8 °F 75.2 °F 62% 29.83 in 6.2 mi West 19.6 mph - N/A   Scattered Clouds
2:30 PM 87.8 °F 95.6 °F 73.4 °F 62% 29.83 in 6.2 mi West 17.3 mph - N/A   Scattered Clouds
3:00 PM 87.8 °F 97.6 °F 75.2 °F 66% 29.80 in 5.6 mi West 17.3 mph - N/A   Scattered Clouds
3:30 PM 86.0 °F 93.4 °F 73.4 °F 66% 29.80 in 6.2 mi West 19.6 mph - N/A   Scattered Clouds
4:00 PM 86.0 °F 93.4 °F 73.4 °F 66% 29.80 in 5.6 mi West 17.3 mph - N/A   Mostly Cloudy
4:30 PM 87.8 °F 97.6 °F 75.2 °F 66% 29.80 in 5.6 mi West 15.0 mph - N/A   Scattered Clouds
5:00 PM 86.0 °F 93.4 °F 73.4 °F 66% 29.80 in 5.6 mi West 15.0 mph - N/A   Scattered Clouds
5:30 PM 86.0 °F 95.1 °F 75.2 °F 70% 29.80 in 5.6 mi West 18.4 mph - N/A   Scattered Clouds
6:00 PM 86.0 °F 93.4 °F 73.4 °F 66% 29.80 in 5.6 mi WSW 13.8 mph - N/A   Scattered Clouds
6:30 PM 84.2 °F 90.9 °F 73.4 °F 70% 29.80 in 5.6 mi West 13.8 mph - N/A   Scattered Clouds
7:00 PM 85 °F - 76 °F 68% 29.78 in 6 mi West 11.5 mph - -   Scattered Clouds
7:00 PM 84.2 °F 90.9 °F 73.4 °F 70% 29.83 in 5.6 mi West 15.0 mph - N/A   Mostly Cloudy
7:30 PM 84.2 °F 92.3 °F 75.2 °F 74% 29.83 in 5.6 mi West 16.1 mph - N/A   Mostly Cloudy
8:00 PM 84.2 °F 92.3 °F 75.2 °F 74% 29.83 in 5.6 mi West 12.7 mph - N/A   Mostly Cloudy
8:30 PM 84.2 °F 92.3 °F 75.2 °F 74% 29.83 in 5.6 mi West 13.8 mph - N/A   Mostly Cloudy
9:00 PM 84.2 °F 90.9 °F 73.4 °F 70% 29.86 in 5.6 mi WSW 12.7 mph - N/A   Mostly Cloudy
9:30 PM 84.2 °F 92.3 °F 75.2 °F 74% 29.86 in 5.6 mi West 16.1 mph - N/A   Mostly Cloudy
10:00 PM 84.2 °F 92.3 °F 75.2 °F 74% 29.86 in 5.6 mi WSW 9.2 mph - N/A   Mostly Cloudy
10:30 PM 84.2 °F 92.3 °F 75.2 °F 74% 29.86 in 5.6 mi WSW 8.1 mph 19.6 mph N/A   Mostly Cloudy
11:00 PM 84.2 °F 90.9 °F 73.4 °F 70% 29.86 in 5.6 mi WSW 9.2 mph - N/A   Mostly Cloudy
11:30 PM 84.2 °F 92.3 °F 75.2 °F 74% 29.86 in 5.6 mi WSW 12.7 mph - N/A   Mostly Cloudy